GW5135 Weather Reports


Display with metric or nautical units.
time (UTC)temp
F
wind
direction
speed
MPH
gust
MPH
rain 1hr
in
rain 24hr
in
rain mn
in
humidity
%
barometer
mb
20260505050506 51 117 0.0 0.0 0.00 0.00 0.00 97 1012.2
20260505041433 51 150 0.0 0.0 0.00 0.00 0.00 97 1011.8
20260505040930 51 155 0.0 0.0 0.00 0.00 0.00 97 1011.7
20260505040428 51 154 0.0 0.0 0.00 0.00 0.00 97 1011.8
20260505035924 51 155 0.0 0.0 0.00 0.00 0.00 97 1011.3
20260505035420 51 154 0.0 0.0 0.00 0.00 0.00 97 1011.7
20260505034918 51 154 0.0 0.0 0.00 0.00 0.00 97 1011.6
20260505034414 51 155 0.0 0.0 0.00 0.00 0.00 96 1011.7
20260505033912 51 153 0.0 0.0 0.00 0.00 0.00 96 1011.7
20260505033408 51 135 0.0 0.0 0.00 0.00 0.00 96 1011.7
20260505032907 51 129 0.0 0.0 0.00 0.00 0.00 96 1011.6
20260505032402 51 153 0.0 0.0 0.00 0.00 0.00 96 1011.7
20260505031859 52 153 0.0 0.0 0.00 0.00 0.00 96 1011.8
20260505031356 52 164 0.0 0.0 0.00 0.00 0.00 95 1011.7
20260505030854 52 164 0.0 0.0 0.00 0.00 0.00 95 1011.7
20260505030349 52 168 0.0 0.0 0.00 0.00 0.00 95 1011.8
20260505025845 52 156 0.0 0.0 0.00 0.00 0.00 95 1011.8
20260505025343 52 154 0.0 0.0 0.00 0.00 0.00 95 1011.7
20260505024841 53 154 0.0 0.0 0.00 0.00 0.00 95 1011.7
20260505024339 53 154 0.0 0.0 0.00 0.00 0.00 94 1011.8
20260505023835 53 154 0.0 0.0 0.00 0.00 0.00 94 1011.8
20260505023332 53 154 0.0 0.0 0.00 0.00 0.00 93 1011.8
20260505022830 54 154 0.0 0.0 0.00 0.00 0.00 93 1011.9
20260505022326 54 157 0.0 0.0 0.00 0.00 0.00 93 1011.7
20260505021824 54 156 0.0 0.0 0.00 0.00 0.00 93 1011.7
20260505021320 54 156 0.0 0.0 0.00 0.00 0.00 93 1011.7
20260505020816 54 156 0.0 0.0 0.00 0.00 0.00 92 1011.6
20260505020312 55 156 0.0 1.0 0.00 0.00 0.00 91 1011.4
20260505015809 55 154 0.0 0.0 0.00 0.00 0.00 91 1011.6
20260505015306 55 154 0.0 1.0 0.00 0.00 0.00 91 1011.7
20260505014803 55 154 0.0 0.0 0.00 0.00 0.00 91 1011.7
20260505014300 55 153 0.0 0.0 0.00 0.00 0.00 90 1011.6
20260505013757 56 153 0.0 0.0 0.00 0.00 0.00 90 1011.6
20260505013255 56 155 0.0 1.0 0.00 0.00 0.00 90 1011.1
20260505012753 56 159 0.0 1.0 0.00 0.00 0.00 89 1011.2
20260505012250 57 160 0.0 0.0 0.00 0.00 0.00 88 1011.3
20260505011745 57 167 0.0 1.0 0.00 0.00 0.00 87 1011.3
20260505011242 57 149 0.0 1.0 0.00 0.00 0.00 87 1011.1
20260505010738 58 139 0.0 0.0 0.00 0.00 0.00 86 1011.3
20260505010234 58 140 0.0 0.0 0.00 0.00 0.00 86 1011.3
20260505005731 58 136 0.0 0.0 0.00 0.00 0.00 85 1011.0
20260505005228 59 149 0.0 1.0 0.00 0.00 0.00 85 1011.2
20260505004725 59 145 0.0 1.0 0.00 0.00 0.00 84 1011.4
20260505004221 60 161 1.0 1.0 0.00 0.00 0.00 83 1011.4
20260505003719 60 139 0.0 0.0 0.00 0.00 0.00 81 1011.3
20260505003217 60 134 0.0 1.0 0.00 0.00 0.00 81 1011.3
20260505002712 61 150 0.0 0.0 0.00 0.00 0.00 80 1011.3
20260505002210 62 149 0.0 0.0 0.00 0.00 0.00 78 1011.4
20260505001707 62 161 0.0 0.0 0.00 0.00 0.00 77 1011.2
20260505001205 63 148 0.0 0.0 0.00 0.00 0.00 76 1011.3
20260505000702 63 122 0.0 0.0 0.00 0.00 0.00 76 1011.4
20260505000200 63 150 1.0 1.0 0.00 0.00 0.00 75 1011.4
20260504235656 64 135 0.0 0.0 0.00 0.00 0.00 73 1011.4
20260504235152 65 133 0.0 0.0 0.00 0.00 0.00 71 1011.3
20260504234650 66 157 1.0 1.0 0.00 0.00 0.00 72 1011.4
20260504234147 66 42 1.0 1.0 0.00 0.00 0.00 64 1011.6
20260504233643 67 37 0.0 1.0 0.00 0.00 0.00 66 1011.6
20260504233139 68 51 1.0 2.0 0.00 0.00 0.00 60 1011.4
20260504232636 68 297 1.0 1.0 0.00 0.00 0.00 61 1011.6
20260504232133 69 95 0.0 1.0 0.00 0.00 0.00 62 1011.6
20260504231630 70 23 0.0 1.0 0.00 0.00 0.00 56 1011.4
20260504231126 71 74 1.0 2.0 0.00 0.00 0.00 55 1011.6
20260504230622 71 49 1.0 2.0 0.00 0.00 0.00 50 1011.7
20260504230121 73 257 0.0 2.0 0.00 0.00 0.00 50 1011.8
20260504225619 73 95 1.0 2.0 0.00 0.00 0.00 47 1012.0
20260504225115 73 304 2.0 4.0 0.00 0.00 0.00 49 1011.7
20260504224612 73 338 2.0 3.0 0.00 0.00 0.00 46 1011.7
20260504224109 73 312 6.0 9.0 0.00 0.00 0.00 48 1011.8
20260504223606 73 40 1.0 2.0 0.00 0.00 0.00 49 1011.9
20260504223101 73 342 1.0 2.0 0.00 0.00 0.00 49 1011.6
20260504222558 73 41 1.0 3.0 0.00 0.00 0.00 47 1011.7
20260504222055 73 212 1.0 2.0 0.00 0.00 0.00 52 1011.9
20260504221553 72 288 0.0 3.0 0.00 0.00 0.00 47 1011.8
20260504221049 72 308 1.0 3.0 0.00 0.00 0.00 49 1011.8
20260504220546 72 165 0.0 2.0 0.00 0.00 0.00 46 1011.8
20260504220043 73 343 3.0 6.0 0.00 0.00 0.00 45 1011.6
20260504215539 72 124 0.0 8.0 0.00 0.00 0.00 47 1011.9
20260504215037 72 168 1.0 4.0 0.00 0.00 0.00 47 1012.0
20260504214533 72 296 4.0 7.0 0.00 0.00 0.00 46 1012.0
20260504214029 73 242 0.0 1.0 0.00 0.00 0.00 55 1011.8
20260504213526 72 266 1.0 4.0 0.00 0.00 0.00 47 1011.7
20260504213023 73 36 2.0 3.0 0.00 0.00 0.00 47 1011.7
20260504212519 73 195 2.0 7.0 0.00 0.00 0.00 46 1011.8
20260504212017 73 300 2.0 6.0 0.00 0.00 0.00 47 1011.3
20260504211513 74 13 0.0 3.0 0.00 0.00 0.00 46 1011.3
20260504211011 73 146 2.0 9.0 0.00 0.00 0.00 46 1011.0
20260504210508 73 107 4.0 8.0 0.00 0.00 0.00 45 1011.2
20260504210004 73 93 3.0 6.0 0.00 0.00 0.00 45 1011.2
20260504205502 73 81 3.0 6.0 0.00 0.00 0.00 46 1011.2
20260504205000 73 54 2.0 2.0 0.00 0.00 0.00 51 1011.3
20260504204458 73 265 0.0 1.0 0.00 0.00 0.00 46 1011.4
20260504203957 73 32 3.0 6.0 0.00 0.00 0.00 45 1011.4
20260504203454 74 335 5.0 7.0 0.00 0.00 0.00 46 1011.4
20260504202950 74 328 1.0 3.0 0.00 0.00 0.00 47 1011.6
20260504202446 73 134 4.0 7.0 0.00 0.00 0.00 44 1011.4
20260504201943 73 123 1.0 2.0 0.00 0.00 0.00 47 1011.9
20260504201441 73 67 5.0 8.0 0.00 0.00 0.00 46 1011.7
20260504200938 73 182 3.0 4.0 0.00 0.00 0.00 45 1011.8
20260504200435 73 123 6.0 9.0 0.00 0.00 0.00 48 1012.0
20260504195931 73 134 7.0 9.0 0.00 0.00 0.00 45 1011.8
20260504195427 73 131 2.0 3.0 0.00 0.00 0.00 45 1012.0
20260504194924 72 123 2.0 8.0 0.00 0.00 0.00 47 1012.0
20260504194420 72 161 1.0 1.0 0.00 0.00 0.00 48 1011.7
20260504193916 71 357 6.0 8.0 0.00 0.00 0.00 47 1012.0
20260504193414 71 288 2.0 3.0 0.00 0.00 0.00 47 1012.1
20260504192912 71 326 1.0 2.0 0.00 0.00 0.00 47 1012.2
20260504192409 72 10 6.0 8.0 0.00 0.00 0.00 46 1012.2
20260504191908 72 124 1.0 7.0 0.00 0.00 0.00 46 1012.6
20260504191405 72 278 2.0 6.0 0.00 0.00 0.00 48 1012.4
20260504190900 72 196 6.0 13.0 0.00 0.00 0.00 46 1012.4
20260504190356 73 113 4.0 8.0 0.00 0.00 0.00 45 1012.3
20260504185853 72 129 8.0 11.0 0.00 0.00 0.00 47 1012.1
20260504185350 73 288 4.0 7.0 0.00 0.00 0.00 46 1012.0
20260504184846 73 179 5.0 7.0 0.00 0.00 0.00 46 1011.9
20260504184342 73 146 3.0 3.0 0.00 0.00 0.00 45 1012.2
20260504183838 72 153 7.0 9.0 0.00 0.00 0.00 46 1012.0
20260504183336 71 288 6.0 7.0 0.00 0.00 0.00 46 1012.5
20260504182833 73 141 6.0 15.0 0.00 0.00 0.00 46 1012.4
20260504182331 73 140 3.0 7.0 0.00 0.00 0.00 49 1012.4
20260504181827 71 186 9.0 11.0 0.00 0.00 0.00 47 1012.5
20260504181325 71 102 3.0 8.0 0.00 0.00 0.00 46 1012.7
20260504180824 70 111 2.0 9.0 0.00 0.00 0.00 47 1012.9
20260504180322 71 109 4.0 14.0 0.00 0.00 0.00 47 1013.0
20260504175820 71 157 4.0 9.0 0.00 0.00 0.00 49 1013.3
20260504175316 71 206 1.0 3.0 0.00 0.00 0.00 48 1012.9
20260504174815 70 224 1.0 10.0 0.00 0.00 0.00 47 1013.4
20260504174311 69 214 3.0 11.0 0.00 0.00 0.00 48 1013.3
20260504173808 69 159 2.0 4.0 0.00 0.00 0.00 54 1013.4
20260504173305 69 167 1.0 7.0 0.00 0.00 0.00 51 1013.4
20260504172802 68 127 7.0 14.0 0.00 0.00 0.00 49 1013.6
20260504172259 68 311 2.0 6.0 0.00 0.00 0.00 49 1013.9
20260504171754 67 8 2.0 13.0 0.00 0.00 0.00 53 1014.1
20260504171252 68 40 2.0 8.0 0.00 0.00 0.00 50 1014.0
20260504170749 68 1 1.0 8.0 0.00 0.00 0.00 50 1014.0
20260504170246 68 335 7.0 9.0 0.00 0.00 0.00 53 1014.1
20260504160204 63 285 1.0 3.0 0.00 0.00 0.00 58 1015.1
20260504151132 63 250 2.0 3.0 0.00 0.00 0.00 54 1015.5
20260504150630 63 232 2.0 4.0 0.00 0.00 0.00 55 1015.7
20260504150126 63 347 5.0 6.0 0.00 0.00 0.00 54 1015.5
20260504141055 63 149 3.0 15.0 0.00 0.00 0.00 52 1015.5
20260504140551 63 155 2.0 7.0 0.00 0.00 0.00 50 1015.4
20260504130516 58 124 6.0 9.0 0.00 0.00 0.00 56 1016.0
20260504110403 42 113 0.0 0.0 0.00 0.00 0.00 98 1015.8
20260504100320 44 108 0.0 0.0 0.00 0.00 0.00 97 1016.0
20260504081714 45 107 0.0 0.0 0.00 0.00 0.00 95 1016.7
20260504081210 45 108 0.0 0.0 0.00 0.00 0.00 95 1016.8
20260504080706 45 108 0.0 0.0 0.00 0.00 0.00 95 1016.9
20260504080203 45 108 0.0 0.0 0.00 0.00 0.00 95 1016.9
20260504070131 45 108 0.0 0.0 0.00 0.00 0.00 93 1017.0